SCP
1 1 1 1 1 1 1 1 1 1 1 1 0 0 0 0 0 0 0 0 0 0 0 0 0 0 0 0 0 0 0 0 0 0 0 0 0 0
0 0 0 1 1 1 1 1 1 1 1 1 0 0 0 0 0 0 0 0 0 0 0 0 0 0 0 0 0 0 0 0 0 0 0 0 0 0
0 0 0 0 1 1 1 1 1 1 1 1 0 0 0 0 0 0 0 0 0 0 0 0 0 0 0 0 0 0 0 0 0 0 0 0 0 0
0 0 0 0 0 1 1 1 1 1 1 0 0 0 0 0 0 0 0 0 0 0 0 0 0 0 0 0 0 0 0 0 0 0 0 0 0 0
0 0 0 0 0 1 1 1 1 0 0 0 0 0 0 0 0 0 0 0 0 0 0 0 0 0 0 0 0 0 0 0 0 0 0 0 0 0
0 0 0 0 0 0 0 0 0 0 0 0 0 0 0 0 0 0 0 0 0 0 0 0 0 0 0 0 0 0 0 0 0 0 0 0 0 0
0 0 0 0 0 0 0 0 0 0 0 0 0 0 0 0 0 0 0 0 0 0 0 0 0 0 0 0 0 0 0 0 0 0 0 0 0 0
0 0 0 0 0 0 0 0 0 0 0 0 0 0 0 0 0 0 0 0 0 0 0 0 0 0 0 0 0 0 0 0 0 0 0 0 0 0
0 0 0 0 0 0 0 0 0 0 0 0 0 0 0 0 0 0 0 0 0 0 0 0 0 0 0 0 0 0 0 0 0 0 0 0 0 0
0 0 0 0 0 0 0 0 0 0 0 0 0 0 0 0 0 0 0 0 0 0 0 0 0 0 0 0 0 0 0 0 0 0 0 0 0 0
0 0 0 0 0 0 0 0 0 0 0 0 0 0 0 0 0 0 0 0 0 0 0 0 0 0 0 0 0 0 0 0 0 0 0 0 0 0
0 0 0 0 0 0 0 0 0 0 0 0 0 0 0 0 0 0 0 0 0 0 0 0 0 0 0 0 0 0 0 0 0 0 0 0 0 0
0 0 0 0 0 0 0 0 0 0 0 0 0 0 0 0 0 0 0 0 0 0 0 0 0 0 0 0 0 0 0 0 0 0 0 0 0 0
0 0 0 0 0 0 0 0 0 0 0 0 0 0 0 0 0 0 0 0 0 0 0 0 0 0 0 0 0 0 0 0 0 0 0 0 0 0
0 0 0 0 0 0 0 0 0 0 0 0 0 0 0 0 0 0 0 0 0 0 0 0 0 0 0 0 0 0 0 0 0 0 0 0 0 0
0 0 0 0 0 0 0 0 0 0 0 0 0 0 0 0 0 0 0 0 0 0 0 0 0 0 0 0 0 0 0 0 0 0 0 0 0 0
0 0 0 0 0 0 0 0 0 0 0 0 0 0 0 0 0 0 0 0 0 0 0 0 0 0 0 0 0 0 0 0 0 0 0 0 0 0
0 0 0 0 0 0 0 0 0 0 0 0 0 0 0 0 0 0 0 0 0 0 0 0 0 0 0 0 0 0 0 0 0 0 0 0 0 0
0 0 0 0 0 0 0 0 0 0 0 0 0 0 0 0 0 0 0 0 0 0 0 0 0 0 0 0 0 0 0 0 0 0 0 0 0 0
0 0 0 0 0 0 0 0 0 0 0 0 0 0 0 0 0 0 0 0 0 0 0 0 0 0 0 0 0 0 0 0 0 0 0 0 0 0
0 0 0 0 0 0 0 0 0 0 0 0 0 0 0 0 0 0 0 0 0 0 0 0 0 0 0 0 0 0 0 0 0 0 0 0 0 0
0 0 0 0 0 0 0 0 0 0 0 0 0 0 0 0 0 0 0 0 0 0 0 0 0 0 0 0 0 0 0 0 0 0 0 0 0 0
0 0 0 0 0 0 0 0 0 0 0 0 0 0 0 0 0 0 0 0 0 0 0 0 0 0 0 0 0 0 0 0 0 0 0 0 0 0
Wind_Speed
4 4 4 3 3 3 4 4 4 4 3 2 2 2 2 1 1 2 2 5 5 4 4 4 4 4 4 5 5 5 5 5 5 5 6 6 6 7
3 3 4 3 3 3 4 4 4 5 4 2 2 1 2 2 2 2 2 6 6 5 5 4 4 4 5 5 6 6 6 6 6 6 7 7 8 7
4 4 4 4 4 4 3 3 3 3 4 3 2 1 2 3 2 3 3 3 4 6 6 5 5 4 4 4 5 6 6 6 7 7 7 7 7 7
4 4 5 4 4 4 3 4 3 3 4 4 3 3 3 3 3 4 3 3 2 6 7 6 5 5 5 5 5 5 5 6 6 7 7 7 7 7
5 5 5 5 5 4 4 4 3 3 4 4 4 3 3 2 3 4 3 3 4 4 8 8 7 6 6 5 5 5 5 5 5 6 6 7 7 7
5 5 5 5 5 5 5 5 4 4 4 5 4 3 3 2 3 3 3 3 3 3 2 4 7 9 8 7 6 5 5 5 5 6 6 7 7 7
5 5 5 5 4 4 4 4 4 4 4 4 4 4 3 2 3 3 3 3 3 3 3 3 4 4 5 7 7 5 5 6 6 6 6 7 7 7
6 5 5 5 4 5 5 5 5 5 5 5 4 4 4 4 3 4 3 3 3 2 3 3 3 3 3 2 3 5 5 5 5 6 6 6 6 7
6 5 5 4 4 5 5 7 6 6 6 6 5 5 4 4 4 5 3 4 4 3 3 4 3 3 3 1 4 5 6 6 5 5 6 6 6 6
5 5 5 5 4 4 5 5 5 5 6 6 5 6 5 4 5 5 4 5 5 4 3 4 3 3 3 2 5 6 6 6 6 6 6 6 6 6
5 5 5 5 2 3 5 5 5 5 3 3 4 4 4 4 5 4 4 4 4 3 2 4 4 4 3 3 4 8 8 8 7 7 6 6 6 7
4 5 5 4 3 4 6 5 6 5 4 4 5 6 7 7 8 7 5 4 4 3 2 3 4 3 4 3 3 4 5 7 9 8 8 7 6 6
4 4 2 4 4 5 7 6 5 5 5 5 5 4 4 4 5 6 5 5 5 4 2 3 4 4 4 4 4 4 4 3 5 6 8 8 7 6
4 4 2 4 4 6 6 4 4 6 6 5 5 4 4 4 3 4 5 6 5 6 4 4 4 4 5 5 4 3 4 4 4 4 4 6 8 8
3 2 2 5 6 6 7 7 7 6 6 5 5 5 4 3 3 3 4 5 6 6 5 5 5 5 5 6 5 4 4 4 4 4 4 4 4 5
3 2 5 7 7 5 5 6 6 5 5 6 5 4 3 3 4 4 4 4 4 4 4 5 6 6 6 6 6 5 5 5 4 4 3 4 4 5
3 4 4 4 4 4 4 4 4 4 5 5 5 4 4 4 4 3 4 4 5 4 3 3 4 5 6 7 6 6 5 5 4 4 4 5 5 5
4 5 4 5 5 5 5 4 4 4 4 5 5 4 4 4 4 4 4 4 4 4 4 3 3 4 5 4 5 6 5 5 4 4 5 6 6 5
5 5 4 5 5 5 4 4 4 3 3 4 4 4 4 4 4 4 4 4 4 4 4 3 4 4 5 6 4 4 5 5 5 5 6 6 6 5
5 5 4 4 5 5 4 4 4 4 4 4 4 4 4 4 5 5 4 4 4 5 4 4 4 4 5 6 5 4 5 6 5 6 5 5 5 4
5 4 4 4 4 4 4 5 4 4 4 4 4 4 4 5 5 5 4 4 5 5 5 4 2 3 5 5 5 5 4 4 5 6 6 6 6 6
4 4 4 4 4 4 4 4 4 4 4 4 4 4 4 4 5 5 5 4 4 5 5 4 3 4 5 6 6 6 5 4 4 6 7 8 7 6
4 4 4 4 4 4 4 4 4 4 3 3 3 3 4 4 4 4 4 5 4 4 4 4 3 4 5 5 6 5 7 6 5 6 5 7 10 10
Wind_Direction
236 235 251 249 255 264 267 270 275 269 251 218 229 202 245 231 208 234 213 157 177 184 195 198 198 205 210 214 215 217 221 223 223 223 226 224 222 226
251 253 259 258 261 255 259 260 265 274 278 261 255 260 274 265 180 242 226 166 178 191 199 206 214 220 221 218 221 222 226 230 231 226 225 227 228 228
249 245 251 263 260 254 250 251 254 259 265 269 258 236 238 269 251 255 235 227 183 179 189 201 209 215 219 222 224 226 229 233 236 235 232 231 230 230
250 251 250 244 248 259 258 255 256 262 262 270 270 251 234 240 248 256 257 250 239 167 183 195 200 206 213 219 223 227 229 233 235 237 234 232 231 231
249 251 250 248 249 253 255 255 251 243 251 257 261 263 256 249 247 245 247 254 259 185 187 193 197 202 210 215 221 227 229 234 237 238 236 233 233 233
250 250 251 250 250 252 250 253 257 255 247 252 256 255 252 240 246 253 248 232 253 258 224 211 196 200 203 205 213 223 229 235 239 240 240 238 237 237
247 248 250 255 269 271 272 264 254 254 256 255 256 258 259 262 259 264 268 263 237 245 249 236 217 223 208 202 207 218 225 234 239 241 243 241 240 241
246 248 246 229 229 232 253 271 280 267 268 267 264 266 266 266 271 272 274 271 265 239 258 262 254 253 248 233 179 189 207 224 236 240 241 242 243 244
245 246 251 245 235 240 229 228 240 255 266 272 275 279 275 272 274 270 268 273 279 285 268 261 256 252 248 194 161 177 194 213 228 236 239 241 241 243
244 244 247 251 252 259 254 249 245 237 237 239 252 264 271 278 271 266 266 253 252 253 264 267 271 269 262 230 170 180 194 212 224 229 231 235 239 244
246 240 242 242 233 254 254 255 255 251 242 242 260 264 280 277 275 268 256 256 263 252 239 260 269 274 263 246 194 184 197 210 219 226 231 235 238 241
251 238 228 232 206 229 246 251 255 258 259 244 231 230 236 232 225 241 253 259 269 264 241 253 262 269 269 252 238 210 210 210 213 219 224 231 241 248
256 250 218 172 197 224 247 250 254 264 256 246 244 241 236 234 229 228 238 252 260 262 253 257 266 264 268 269 262 248 242 238 226 224 217 218 222 239
258 258 225 185 217 231 241 247 248 255 249 243 246 246 243 246 247 249 244 248 257 265 264 265 269 269 269 266 267 259 256 250 247 248 236 203 209 218
268 285 252 220 226 230 219 220 229 240 246 246 249 252 254 256 254 245 236 235 239 243 243 248 254 258 262 266 266 262 267 262 250 245 240 238 236 228
259 232 215 224 238 244 222 218 228 240 251 253 253 253 252 243 247 255 255 247 249 245 230 235 243 253 258 261 264 263 261 261 258 255 254 251 248 245
279 257 242 232 231 232 231 230 230 226 234 250 256 254 249 248 250 249 254 260 260 259 253 239 237 244 254 257 257 258 259 259 258 257 253 257 257 253
253 249 245 240 240 239 239 235 232 235 238 241 245 247 250 252 255 256 254 258 260 261 259 257 253 252 253 250 252 260 263 266 268 259 258 257 258 253
246 249 250 250 248 245 245 247 247 244 246 248 248 247 253 256 258 258 256 260 263 267 267 263 258 260 262 265 252 233 263 270 267 261 256 255 260 260
251 255 256 257 255 255 254 255 256 251 242 248 249 245 246 250 254 258 256 259 264 268 267 265 266 273 278 282 282 267 243 259 262 266 269 270 268 263
257 262 264 265 265 265 266 260 255 255 251 247 248 248 244 246 252 256 255 248 260 266 267 271 285 277 280 277 269 268 262 235 257 268 273 267 263 257
266 271 273 275 274 273 272 266 256 252 253 249 248 253 256 257 258 261 261 258 260 268 275 278 270 261 262 264 269 276 283 273 242 236 249 261 268 266
271 275 281 283 279 277 276 276 272 266 260 260 259 258 262 262 263 262 259 261 264 267 271 275 281 277 273 271 273 277 281 277 265 254 250 234 231 239